Погода в Баратаевке

Россия / Ульяновская область     54°17′27″N   48°12′31″E
темп.,
°C
ветер,
м/с
пор.,
м/с
влажн.,
%
обл.,
%
осадки,
мм/ч
давл.,
гПа
погр.,
м
16 мая, вс
вс1601:00+21ю51543100 0.0 1016314
04:00+20ю5154562 0.0 1016309
07:00+20ююз5135042 0.0 1016292
10:00+25ююз61139100 0.0 1017548
13:00+29ююз712245 0.0 10172328
16:00+29ю792897 0.0 10162358
19:00+26ююз38425 0.0 1016401
22:00+21ююз225098 0.0 101624
17 мая, пн
пн1701:00+19зюз115295 0.0 101611
04:00+18ююз225447 0.0 101713
07:00+20ююз155315 0.0 1017150
10:00+26ююз354045 0.0 1018491
13:00+30ююз452922 0.0 10171757
16:00+31ююз442520 0.0 10173382
19:00+27юз364031 0.0 1017247
22:00+21ссв225115 0.0 101853
18 мая, вт
вт1801:00+19юв12568 0.0 101814
04:00+18ююв22567 0.0 101823
07:00+20вюв12525 0.0 101876
10:00+25вюв24386 0.0 1018361
13:00+28вюв34279 0.0 1018965
16:00+29в34235 0.0 1017760
19:00+26в223240 0.0 101749
22:00+21всв24585 0.0 101758
19 мая, ср
ср1901:00+19вюв24625 0.0 101769
04:00+16всв24785 0.0 101797
07:00+18в38765 0.0 1017238
10:00+23вюв57595 0.0 1017493
13:00+26вюв684617 0.0 1016970
16:00+27вюв684110 0.0 10161121
19:00+24вюв5115318 0.0 1015508
22:00+20вюв5145810 0.0 1015374
20 мая, чт
чт2001:00+19юв515590 0.0 1015495
04:00+16вюв412680 0.0 1015338
07:00+17вюв513620 0.0 1015509
10:00+21юв711530 0.0 1015797
13:00+25юв794723 0.0 10151661
16:00+20юз786042 0.5 1016774
19:00+19ююз4763100 0.1 1016516
22:00+16ююз257184 0.1 1017147